Regional Weather Roundup
Issued by NWS

Home | Current Version | Previous Version | Text Only | Print | Product List | Glossary Off
Versions: 1 2 3 4 5 6 7 8 9 10 11 12 13 14 15 16 17 18 19 20 21 22 23 24 25 26 27 28 29 30 31 32 33 34 35 36 37 38 39 40 41 42 43 44 45 46 47 48 49 50

000
ASUS43 KLMK 241210
RWRKY
KENTUCKY REGIONAL WEATHER ROUNDUP
NATIONAL WEATHER SERVICE LOUISVILLE KY
800 AM EDT THU MAY 24 2018

NOTE "FAIR" INDICATES FEW OR NO CLOUDS BELOW 12,000 FEET
WITH NO SIGNIFICANT WEATHER AND/OR OBSTRUCTIONS TO VISIBILITY.

KYZ001>023-026-027-061>063-070>075-241300-
WESTERN AND SOUTH CENTRAL KENTUCKY

CITY           SKY/WX    TMP DP  RH WIND       PRES   REMARKS
PADUCAH        FAIR      69  66  90 E3        30.14R
HENDERSON      NOT AVBL
OWENSBORO      FAIR      69  61  75 E6        30.17R
HOPKINSVILLE   FAIR      70  65  85 NE7       30.14R
BOWLING GREEN  FAIR      69  63  81 CALM      30.15R
GLASGOW        FAIR      67  60  79 NE3       30.16R
$$

KYZ024-025-028>034-038-045-046-053-241300-
NORTH CENTRAL KENTUCKY

CITY           SKY/WX    TMP DP  RH WIND       PRES   REMARKS
LOUISVILLE/SDF FAIR      68  58  70 NE5       30.18R
LOUISVILLE/LOU FAIR      67  60  78 NE5       30.19R
FORT KNOX      FAIR      65  59  80 NE3       30.19R
$$

KYZ035>037-039>044-047>052-055>060-089>105-241300-
NORTHEAST KENTUCKY

CITY           SKY/WX    TMP DP  RH WIND       PRES   REMARKS
LEXINGTON      FAIR      64  57  78 E9        30.19R
COVINGTON      FAIR      64  58  80 CALM      30.22R
FRANKFORT      FAIR      64  56  75 NE5       30.19R
$$

KYZ054-064>069-076>088-106>120-241300-
SOUTHEAST KENTUCKY

CITY           SKY/WX    TMP DP  RH WIND       PRES   REMARKS
JACKSON        FAIR      61  58  90 CALM      30.18S
LONDON         FAIR      65  61  87 NE3       30.17R
SOMERSET       FAIR      64  59  82 MISG      30.18R
MIDDLESBORO    FOG       61  61 100 CALM      30.17S VSB 1/4
MONTICELLO     FAIR      66  62  87 W7        30.18R
$$




USA.gov is the U.S. government's official web portal to all federal, state and local government web resources and services.